Wind_Speed
7 7 7 7 8 8 8 8 8 9 9 9 9 10 11 11 12 12 12 12 12 12 12 13 13 14 15 15 14 14 14 14 15 15 15 14 14 15 14 14 14 14 14
9 9 9 9 9 9 9 9 10 10 11 11 11 12 13 14 14 14 14 13 13 13 13 14 15 15 15 15 15 15 15 15 15 15 16 16 15 16 16 16 15 15 15
10 11 12 12 11 11 11 11 12 12 13 13 13 14 15 16 16 16 15 15 14 14 14 15 16 16 16 16 17 17 17 17 16 17 17 17 16 17 17 16 17 17 16
11 12 13 13 13 13 13 13 14 14 15 15 15 16 16 17 17 17 17 16 16 16 16 17 17 17 17 18 18 18 18 18 18 18 18 18 18 18 18 18 18 18 18
13 14 14 15 15 15 16 16 17 17 17 17 17 17 17 18 18 19 19 18 18 18 19 19 19 18 18 19 19 19 20 20 20 19 20 19 20 20 20 20 19 19 19
15 15 16 17 17 18 18 18 18 19 19 20 20 20 20 20 20 20 20 20 19 20 20 20 20 20 20 20 21 21 22 22 22 21 21 21 21 22 22 21 21 21 21
17 17 18 18 19 19 20 21 21 22 22 22 22 22 21 21 20 20 20 21 21 22 22 22 22 23 23 23 22 23 24 24 24 23 22 23 23 23 23 23 23 24 23
19 19 19 20 21 21 22 23 24 23 23 23 23 23 22 22 22 21 22 22 22 23 23 24 25 25 25 25 25 26 26 26 25 25 25 25 25 25 25 25 25 26 26
21 21 21 21 21 21 22 23 24 24 24 23 23 24 23 23 23 23 23 24 24 24 25 26 26 27 27 27 27 28 28 28 27 28 27 27 27 27 27 27 27 27 26
22 22 22 22 22 23 23 24 25 24 24 25 25 24 24 24 25 25 25 26 26 26 27 27 28 28 28 29 29 29 29 29 29 29 29 29 29 29 28 28 28 28 28
23 24 24 24 23 23 24 25 25 25 25 25 25 25 25 25 26 26 26 27 27 27 28 28 29 29 29 29 29 30 30 29 30 30 30 30 30 30 30 30 30 30 29
23 24 24 24 23 23 24 24 24 25 25 26 26 27 26 26 27 27 27 28 28 29 29 29 29 29 29 29 30 30 30 30 30 31 31 31 31 31 32 32 31 31 30
25 24 24 24 24 25 25 26 26 26 26 27 27 27 27 27 27 27 28 29 29 29 30 29 30 30 30 30 30 31 31 31 32 31 31 31 32 32 32 32 32 31 30
26 25 25 25 26 26 27 27 27 27 27 28 28 27 27 27 28 28 28 29 30 31 30 30 31 31 32 32 32 32 33 33 33 32 32 32 31 32 32 33 33 33 32
28 26 27 27 27 28 29 29 29 28 28 28 28 28 28 28 28 29 29 30 30 30 30 31 32 32 33 33 34 35 35 34 34 34 34 33 33 33 33 33 33 34 33
29 28 28 29 29 30 30 30 30 29 28 28 28 28 28 29 29 30 30 30 30 30 30 31 31 32 33 34 35 35 35 35 35 36 35 35 34 34 34 33 33 33 33
30 30 30 30 30 29 29 29 29 29 28 29 28 28 29 30 29 30 30 31 31 32 31 32 32 33 34 34 35 35 35 36 36 35 35 34 34 34 35 34 34 33 33
31 31 30 30 30 29 29 30 30 29 29 29 28 28 29 29 29 29 30 31 32 32 32 32 33 34 35 35 35 34 35 35 35 35 34 35 35 35 35 35 35 35 35
31 31 31 31 31 31 30 30 30 29 29 29 28 29 29 30 30 30 31 32 32 31 31 32 33 34 34 35 35 34 34 34 34 33 33 34 34 35 35 35 35 35 34
31 31 31 31 31 30 30 30 29 29 29 29 29 29 30 30 30 31 31 31 32 32 32 32 33 33 34 33 33 33 33 33 32 32 32 33 34 34 34 34 33 33 32
31 31 31 30 30 30 30 30 30 29 29 28 29 30 31 31 30 31 31 31 32 32 33 34 34 33 33 32 31 31 32 32 32 32 32 33 33 33 33 33 34 33 33
31 31 30 29 30 30 29 29 30 30 30 29 29 30 32 31 31 31 32 32 32 33 34 34 32 32 31 31 31 31 31 31 31 32 32 33 33 33 33 32 32 32 32
31 30 29 29 29 29 29 29 29 30 30 30 30 31 31 31 31 31 32 32 33 33 33 32 32 31 32 32 32 31 31 31 32 33 33 32 32 32 32 32 31 31 30
30 29 29 29 29 30 29 29 30 29 30 31 31 30 30 31 31 32 32 32 32 32 32 32 32 32 32 32 32 32 32 32 32 31 31 31 30 30 31 30 30 29 28
29 29 29 29 29 29 29 29 29 29 29 29 29 30 30 31 31 32 33 33 32 32 32 32 32 32 32 32 32 32 32 32 31 31 31 31 30 30 30 29 28 27 27
28 28 29 29 29 29 29 29 29 28 29 29 30 31 31 31 32 32 32 32 32 32 31 31 32 32 31 31 31 31 31 31 31 31 31 31 31 30 29 28 28 27 27
Wind_Direction
289 290 291 295 298 299 299 298 297 297 298 300 302 303 304 306 306 310 312 311 308 309 309 309 309 311 312 313 314 316 316 314 312 312 311 309 306 309 313 315 312 307 305
283 287 285 284 286 289 292 293 293 293 293 295 298 299 298 299 301 303 304 304 303 302 303 304 306 308 310 311 310 311 314 314 312 309 308 308 306 307 308 310 309 308 307
279 283 282 282 283 284 287 289 290 291 293 293 296 295 293 294 296 298 298 299 298 299 300 301 302 303 305 308 307 308 309 308 307 307 307 306 305 305 305 305 305 304 304
280 283 282 284 285 283 284 287 287 287 290 293 295 294 294 294 293 295 294 295 295 295 295 297 299 299 301 303 303 303 303 304 304 306 307 306 303 303 303 302 302 302 302
281 282 281 281 283 283 285 286 286 285 289 291 293 294 294 294 292 292 291 291 292 291 292 295 297 299 300 300 299 298 299 300 300 302 303 302 302 302 302 300 299 300 299
279 280 279 279 279 281 280 283 284 284 286 288 291 292 293 294 292 290 289 289 288 289 292 293 295 296 297 297 297 297 297 297 298 298 299 300 300 299 300 298 298 298 297
279 278 279 279 279 279 279 280 282 284 285 285 287 289 289 291 291 289 287 287 288 289 290 291 293 294 296 294 296 297 296 296 296 297 298 299 299 298 298 297 297 297 296
279 277 278 279 279 278 280 281 281 281 282 283 284 286 286 287 288 287 287 289 289 290 291 291 291 292 294 295 295 295 296 295 295 296 296 296 296 296 296 296 296 296 294
283 281 281 282 280 280 281 281 282 283 283 284 284 286 286 287 288 288 288 288 288 288 288 289 290 291 293 294 294 293 294 293 293 295 294 293 294 294 294 295 296 296 294
283 281 281 282 281 281 282 282 281 282 282 285 286 287 288 288 289 290 289 288 288 288 288 289 289 290 291 292 291 291 291 291 290 291 292 292 292 293 294 295 295 295 293
282 280 278 281 281 282 281 282 283 284 286 286 287 287 288 289 289 290 290 289 289 289 289 288 288 290 291 291 291 291 291 291 290 289 290 289 290 292 294 295 294 294 293
284 283 280 280 282 285 285 287 287 288 288 288 288 287 288 289 290 290 289 289 288 288 288 288 287 288 289 291 292 292 291 291 292 291 290 288 288 289 291 291 292 292 292
284 284 284 282 283 285 287 288 288 288 288 290 290 288 287 288 289 290 290 289 288 288 289 289 288 287 289 291 291 291 291 290 291 291 291 289 288 288 288 288 289 290 290
283 282 282 283 284 285 286 288 289 290 291 291 290 289 288 287 289 289 290 290 290 290 290 290 290 289 290 291 292 292 292 291 290 290 291 290 289 288 288 288 287 287 288
281 279 280 283 283 284 285 286 288 289 290 289 288 286 286 287 289 290 291 291 291 291 289 288 289 290 291 292 291 291 291 290 290 290 290 289 287 287 288 287 287 287 288
279 279 280 282 283 283 284 286 286 286 287 288 288 287 287 289 290 290 290 292 293 292 290 290 290 290 291 291 291 290 290 290 290 289 288 288 287 286 287 287 287 287 287
279 278 280 281 282 282 284 286 286 285 287 287 287 287 288 289 291 292 291 291 292 292 292 292 292 292 292 292 292 290 290 290 290 289 289 288 286 286 285 285 286 286 286
278 278 279 280 282 282 283 283 284 283 284 285 285 286 288 289 291 292 293 293 294 295 293 293 293 294 294 294 294 292 291 290 290 289 289 287 286 285 285 284 285 285 285
278 280 281 281 282 282 282 281 282 282 282 283 284 287 288 289 291 294 294 295 295 295 295 296 296 296 296 296 294 293 293 292 291 290 289 288 287 287 286 285 284 285 284
276 278 279 280 281 282 282 280 280 280 281 283 286 287 287 289 291 293 295 295 296 296 298 297 298 298 298 298 297 296 295 293 292 291 291 290 288 287 286 285 285 285 285
276 276 277 278 278 279 279 280 281 280 282 284 288 290 291 291 292 294 294 294 295 296 297 298 297 297 298 298 298 297 296 295 293 293 293 291 288 287 286 285 285 285 284
275 275 275 276 276 278 279 281 282 282 284 286 287 289 291 293 294 294 294 295 296 296 296 298 298 298 299 299 298 297 296 295 294 293 292 291 289 288 286 287 287 286 285
273 273 273 274 275 277 279 282 283 282 284 286 288 289 291 293 293 293 294 294 296 296 296 297 298 298 298 299 299 299 297 295 295 294 293 292 291 290 288 286 287 287 286
272 272 273 275 277 279 280 281 282 283 284 285 288 290 291 292 293 293 294 295 296 297 297 297 298 298 298 298 299 298 297 297 297 296 294 292 291 291 289 287 287 287 285
271 272 274 275 277 278 280 281 283 284 286 287 289 291 292 293 294 294 295 296 297 297 298 297 298 299 299 299 299 299 298 298 298 296 294 293 292 291 290 287 286 286 285
270 271 273 275 277 279 281 282 283 284 286 288 290 292 293 293 293 294 295 297 298 298 299 299 299 299 300 300 300 299 299 299 297 296 294 292 292 291 290 288 286 285 284
Height
5898 5897 5897 5896 5895 5894 5893 5892 5892 5890 5889 5888 5887 5885 5884 5882 5881 5879 5878 5876 5874 5873 5871 5870 5868 5866 5864 5862 5861 5859 5857 5856 5853 5851 5849 5847 5844 5842 5840 5838 5836 5834 5832
5895 5894 5894 5893 5892 5891 5890 5890 5889 5888 5886 5885 5883 5882 5881 5879 5877 5876 5874 5873 5871 5869 5868 5866 5864 5863 5861 5859 5857 5855 5853 5851 5849 5847 5845 5843 5840 5839 5837 5834 5832 5830 5828
5891 5891 5890 5889 5889 5888 5887 5886 5885 5884 5883 5881 5880 5878 5877 5875 5873 5872 5870 5869 5867 5865 5864 5862 5860 5859 5857 5855 5853 5851 5849 5847 5845 5843 5841 5839 5837 5835 5832 5831 5828 5826 5824
5887 5887 5886 5886 5885 5884 5883 5882 5881 5880 5878 5877 5876 5874 5872 5871 5869 5867 5866 5864 5863 5861 5860 5858 5856 5854 5853 5851 5849 5847 5845 5843 5841 5839 5837 5835 5833 5830 5828 5826 5824 5822 5820
5884 5883 5882 5882 5881 5880 5879 5878 5876 5875 5874 5872 5870 5869 5868 5866 5865 5863 5861 5860 5858 5856 5855 5853 5851 5849 5847 5845 5844 5842 5839 5838 5836 5834 5832 5830 5828 5825 5823 5821 5819 5817 5814
5879 5878 5877 5877 5876 5875 5874 5872 5871 5869 5869 5867 5866 5864 5863 5861 5860 5858 5856 5854 5853 5851 5849 5848 5846 5844 5842 5840 5838 5836 5834 5832 5830 5828 5826 5824 5822 5820 5817 5815 5813 5811 5809
5873 5873 5872 5871 5870 5869 5868 5867 5865 5864 5863 5861 5860 5858 5857 5855 5853 5851 5850 5848 5847 5845 5843 5842 5840 5838 5836 5834 5832 5830 5827 5825 5824 5822 5820 5818 5816 5813 5811 5808 5806 5804 5802
5867 5866 5866 5865 5864 5863 5862 5860 5859 5858 5856 5855 5854 5852 5851 5849 5847 5845 5844 5842 5840 5839 5837 5836 5834 5832 5830 5827 5825 5823 5821 5818 5816 5815 5813 5811 5808 5806 5804 5802 5800 5797 5795
5861 5860 5859 5858 5858 5856 5855 5854 5852 5851 5850 5848 5847 5846 5844 5843 5841 5839 5837 5836 5834 5832 5830 5828 5826 5824 5822 5820 5818 5816 5813 5811 5809 5807 5805 5803 5801 5798 5796 5794 5792 5790 5787
5854 5854 5853 5852 5851 5850 5848 5847 5845 5844 5842 5842 5840 5839 5837 5836 5834 5832 5830 5829 5827 5825 5823 5821 5819 5816 5814 5812 5810 5808 5806 5804 5801 5799 5797 5795 5793 5790 5788 5786 5784 5781 5779
5847 5846 5846 5844 5844 5842 5841 5840 5838 5837 5836 5834 5833 5832 5830 5828 5826 5825 5823 5821 5819 5817 5815 5813 5810 5808 5806 5804 5801 5799 5797 5795 5793 5791 5789 5787 5784 5782 5780 5778 5775 5773 5771
5840 5839 5838 5837 5836 5835 5834 5833 5831 5830 5828 5827 5826 5824 5822 5821 5819 5817 5815 5813 5811 5809 5806 5804 5802 5800 5797 5795 5793 5791 5788 5786 5784 5782 5780 5778 5776 5774 5771 5769 5766 5764 5762
5833 5832 5831 5829 5829 5828 5827 5826 5824 5823 5821 5819 5818 5816 5815 5813 5811 5809 5807 5805 5803 5800 5798 5796 5793 5791 5789 5786 5784 5782 5779 5777 5775 5772 5770 5768 5766 5764 5762 5760 5757 5755 5753
5826 5825 5824 5823 5822 5821 5819 5818 5817 5816 5814 5812 5810 5809 5807 5805 5803 5801 5799 5797 5794 5792 5789 5787 5784 5782 5780 5777 5774 5772 5770 5768 5765 5763 5761 5759 5757 5754 5752 5750 5748 5746 5743
5818 5817 5817 5816 5815 5814 5812 5811 5810 5808 5806 5804 5803 5801 5799 5797 5795 5792 5790 5788 5785 5782 5780 5777 5775 5773 5770 5767 5765 5762 5760 5758 5755 5753 5751 5748 5746 5744 5742 5740 5738 5736 5734
5809 5808 5808 5808 5807 5805 5804 5802 5801 5800 5798 5796 5794 5793 5791 5789 5787 5784 5781 5779 5776 5773 5770 5768 5766 5763 5761 5758 5755 5753 5750 5747 5744 5742 5740 5738 5736 5734 5732 5730 5727 5725 5723
5800 5800 5799 5799 5798 5796 5795 5794 5792 5791 5790 5788 5786 5784 5783 5780 5778 5775 5772 5770 5767 5764 5762 5759 5756 5754 5751 5748 5745 5742 5740 5737 5734 5731 5729 5727 5725 5723 5721 5719 5717 5715 5713
5791 5791 5790 5789 5788 5787 5786 5785 5783 5782 5781 5779 5777 5776 5774 5772 5769 5766 5764 5761 5758 5755 5752 5750 5747 5744 5741 5738 5735 5732 5729 5726 5723 5721 5718 5716 5714 5712 5710 5708 5706 5704 5702
5781 5781 5780 5780 5779 5778 5777 5775 5774 5773 5772 5770 5769 5767 5765 5763 5760 5758 5755 5753 5750 5747 5743 5740 5737 5734 5730 5727 5724 5721 5718 5716 5713 5710 5708 5705 5703 5701 5698 5696 5694 5692 5690
5772 5772 5771 5770 5770 5769 5767 5766 5765 5764 5763 5761 5760 5758 5756 5754 5752 5749 5747 5744 5741 5738 5735 5731 5728 5725 5721 5717 5714 5711 5708 5705 5703 5700 5697 5695 5692 5690 5688 5686 5684 5681 5680
5763 5762 5762 5761 5760 5759 5758 5757 5756 5755 5754 5752 5751 5749 5746 5744 5742 5740 5737 5735 5732 5728 5725 5722 5718 5715 5711 5708 5704 5701 5698 5696 5693 5690 5688 5685 5682 5680 5677 5675 5673 5672 5670
5753 5752 5752 5752 5751 5750 5749 5749 5747 5745 5744 5743 5742 5740 5737 5735 5733 5730 5728 5725 5722 5719 5715 5712 5708 5705 5702 5698 5695 5692 5689 5686 5683 5680 5678 5675 5672 5669 5667 5665 5663 5661 5659
5743 5743 5743 5742 5741 5741 5740 5739 5738 5736 5735 5734 5733 5731 5729 5726 5724 5721 5719 5716 5712 5709 5705 5702 5699 5696 5692 5689 5686 5683 5680 5677 5673 5670 5667 5665 5662 5659 5657 5655 5653 5651 5649
5733 5733 5733 5733 5732 5732 5731 5730 5728 5727 5726 5725 5723 5721 5719 5717 5715 5712 5709 5706 5703 5700 5696 5693 5690 5686 5683 5679 5676 5673 5670 5667 5663 5660 5657 5654 5652 5649 5647 5645 5643 5641 5639
5723 5724 5724 5723 5723 5722 5722 5721 5719 5718 5717 5715 5714 5712 5710 5708 5705 5702 5699 5696 5693 5690 5687 5683 5680 5677 5673 5670 5667 5663 5660 5657 5654 5650 5647 5644 5642 5639 5637 5635 5633 5632 5630
5714 5714 5715 5714 5714 5714 5713 5712 5710 5709 5708 5706 5705 5703 5701 5698 5695 5692 5689 5687 5684 5681 5677 5674 5671 5667 5664 5660 5657 5654 5650 5647 5644 5640 5637 5635 5632 5630 5627 5625 5624 5622 5621